Weather History for Pompano Beach, FL

Change the Weather History Date:

Wednesday, September 11, 2013

  Actual Average Record
Temperature  
Mean Temperature 80 °F -  
Max Temperature 82 °F 91 °F 96 °F (1993)
Min Temperature 77 °F 74 °F 67 °F (1952)
Cooling Degree Days 16    
Growing Degree Days 30 (Base 50)    
Moisture  
Dew Point 73 °F    
Average Humidity 76    
Maximum Humidity 84    
Minimum Humidity 71    
Precipitation  
Precipitation 0.33 in - - ()
Sea Level Pressure  
Sea Level Pressure 30.02 in    
Wind  
Wind Speed 8 mph (East)    
Max Wind Speed 18 mph    
Max Gust Speed 24 mph    
Visibility 9 miles    
Events Rain    
Averages and records for this station are not official NWS values.
T = Trace of Precipitation, MM = Missing Value Source: NWS Daily Summary

Daily Weather History Graph

Daily Weather History Graph

Search for Another Location

Airport:

Trip Planner

Search our weather history database for the weather conditions in past years. The results will help you decide how hot, cold, wet, or windy it might be!

Date:

Astronomy

Sep. 11, 2013 Rise Set
Actual Time 7:04 AM EDT 7:28 PM EDT
Civil Twilight 6:41 AM EDT 7:52 PM EDT
Nautical Twilight 6:14 AM EDT 8:19 PM EDT
Astronomical Twilight 5:46 AM EDT 8:46 PM EDT
Moon 12:54 PM EDT (9/11) No Moon Set
Length of Visible Light 13h 10m
Length of Day
12h 24m
Waxing Crescent, 38% of the Moon is Illuminated
Sep 11
Waxing Crescent
Sep 12
First Quarter
Sep 19
Full
Sep 26
Last Quarter
Oct 4
New

Hourly Weather History & Observations

Time (EDT) Temp. Heat Index Dew Point Humidity Pressure Visibility Wind Dir Wind Speed Gust Speed Precip Events Conditions
12:53 AM 81.0 °F 85.2 °F 72.0 °F 74% 30.02 in 10.0 mi ESE 6.9 mph - N/A   Unknown
1:53 AM 81.0 °F 86.2 °F 73.9 °F 79% 30.01 in 10.0 mi East 8.1 mph - N/A   Unknown
2:53 AM 82.0 °F 88.6 °F 75.0 °F 79% 29.99 in 10.0 mi East 8.1 mph - N/A   Unknown
3:53 AM 82.0 °F 87.9 °F 73.9 °F 76% 29.98 in 10.0 mi ESE 10.4 mph - N/A   Unknown
4:53 AM 82.0 °F 87.4 °F 73.0 °F 74% 29.99 in 10.0 mi East 8.1 mph - N/A   Unknown
5:53 AM 81.0 °F 86.2 °F 73.9 °F 79% 30.00 in 4.0 mi ESE 11.5 mph 18.4 mph N/A   Haze
6:53 AM 81.0 °F 86.2 °F 73.9 °F 79% 30.01 in 10.0 mi ESE 8.1 mph - 0.01 in   Unknown
7:53 AM 82.9 °F 89.4 °F 73.9 °F 74% 30.02 in 10.0 mi East 9.2 mph - N/A   Scattered Clouds
8:53 AM 82.9 °F 89.4 °F 73.9 °F 74% 30.03 in 10.0 mi ESE 6.9 mph - N/A   Scattered Clouds
9:01 AM 80.6 °F 85.4 °F 73.4 °F 79% 30.04 in 1.5 mi SE 16.1 mph 24.2 mph 0.09 in   Haze
9:09 AM 77.0 °F - 71.6 °F 83% 30.03 in 7.0 mi NE 6.9 mph - 0.32 in   Scattered Clouds
9:53 AM 79.0 °F - 73.9 °F 84% 30.05 in 10.0 mi NE 6.9 mph - 0.32 in   Scattered Clouds
10:53 AM 84.9 °F 93.3 °F 75.0 °F 72% 30.05 in 10.0 mi East 10.4 mph - 0.00 in   Scattered Clouds
11:53 AM 84.0 °F 91.9 °F 75.0 °F 74% 30.06 in 10.0 mi ENE 18.4 mph 23.0 mph N/A   Scattered Clouds
12:53 PM 82.0 °F 87.9 °F 73.9 °F 76% 30.06 in 10.0 mi ENE 12.7 mph - N/A   Mostly Cloudy
1:53 PM 82.9 °F 88.8 °F 73.0 °F 72% 30.02 in 10.0 mi ENE 10.4 mph - N/A   Mostly Cloudy
2:53 PM 82.9 °F 88.8 °F 73.0 °F 72% 30.03 in 10.0 mi East 10.4 mph - N/A   Unknown
3:53 PM - - - N/A% 30.02 in - North - - N/A   Unknown
4:53 PM 82.0 °F 86.7 °F 72.0 °F 71% 30.00 in 10.0 mi East 4.6 mph - N/A   Mostly Cloudy
5:53 PM 82.0 °F 86.7 °F 72.0 °F 71% 30.00 in 10.0 mi East 6.9 mph - N/A   Mostly Cloudy
6:53 PM 81.0 °F 85.8 °F 73.0 °F 77% 30.01 in 10.0 mi East 5.8 mph - N/A   Unknown
7:53 PM 82.0 °F 87.4 °F 73.0 °F 74% 30.01 in 10.0 mi East 6.9 mph - N/A   Unknown
8:53 PM 82.0 °F 87.9 °F 73.9 °F 76% 30.01 in 10.0 mi Calm Calm - 0.00 in Rain Light Rain
9:28 PM 82.4 °F 88.2 °F 73.4 °F 74% 30.02 in 10.0 mi ESE 3.5 mph - 0.00 in   Mostly Cloudy
9:40 PM 82.4 °F 88.2 °F 73.4 °F 74% 30.02 in 10.0 mi East 3.5 mph - 0.00 in   Unknown
9:53 PM 82.0 °F 87.9 °F 73.9 °F 76% 30.03 in 10.0 mi Calm Calm - 0.00 in   Unknown
10:53 PM - - - N/A% 30.04 in 10.0 mi East 5.8 mph - N/A   Unknown
11:53 PM 80.1 °F 84.5 °F 73.9 °F 81% 30.02 in 10.0 mi ENE 4.6 mph - N/A   Unknown